Location: Invercargill
(46.4000°S, 168.3500°E)
Time: 16:37:21
(UTC+13:00)

Cosmos 2322 - Pass Details

Date: 29 September 2021
Orbit: 840 x 855 km, 71.0° (Epoch: 17 October)

Event Time Altitude Azimuth Distance (km) Brightness Sun altitude
Rises 23:10:50 0° 204° (SSW) 3,435 7.8 -31.4°
Reaches altitude 10° 23:13:24 10° 197° (SSW) 2,496 6.9 -31.7°
Enters shadow 23:17:28 39° 163° (SSE) 1,268 4.7 -32.2°
